Wetterdaten am Flugplatz MSG Übersee

alte Datensätze gelöscht
114 aktuelle Wetterdateneinträge gefunden

Datum/Uhrzeit   Windrichtung/Grad    Geschw./kmh    Temp./C°    Luftdruck/mbar    Spannung/Volt   
2026-09-01 00:00 W/260 8 20 1024 12,33
2026-09-01 00:10 W/260 10 20 1024 12,35
2026-09-01 00:20 W/274 7 20 1024 12,38
2026-09-01 00:30 NW/297 4 20 1024 12,39
2026-09-01 00:40 W/280 7 20 1024 12,02
2026-09-01 00:50 O/96 7 20 1024 12,29
2026-09-01 01:00 W/287 6 20 1024 12,27
2026-09-01 01:11 W/283 8 20 1025 12,32
2026-09-01 01:21 W/273 9 20 1025 12,40
2026-09-01 01:31 W/253 10 20 1025 12,36
2026-09-01 01:41 W/255 9 20 1025 12,38
2026-09-01 01:51 W/266 7 19 1025 12,40
2026-09-01 02:01 W/264 4 19 1025 12,11
2026-09-01 02:11 W/264 6 19 1025 12,21
2026-09-01 02:21 W/256 8 19 1025 12,24
2026-09-01 02:31 W/269 7 19 1025 12,27
2026-09-01 02:41 W/269 6 19 1025 12,30
2026-09-01 02:51 W/263 4 19 1025 12,33
2026-09-01 03:01 W/256 4 19 1025 11,95
2026-09-01 03:11 W/276 4 19 1025 12,21
2026-09-01 03:21 W/259 3 19 1025 12,23
2026-09-01 03:31 W/256 2 19 1025 12,27
2026-09-01 03:41 W/255 3 18 1025 12,29
2026-09-01 03:51 W/255 3 18 1025 12,32
2026-09-01 04:02 SW/204 7 18 1025 12,33
2026-09-01 04:12 S/171 5 18 1025 11,98
2026-09-01 04:22 S/191 8 18 1025 12,18
2026-09-01 04:32 SW/204 10 18 1025 12,23
2026-09-01 04:42 SW/209 11 18 1025 12,26
2026-09-01 04:52 SW/204 12 18 1025 12,29
2026-09-01 05:02 SW/207 13 18 1025 12,32
2026-09-01 05:12 SW/207 17 18 1025 11,99
2026-09-01 05:22 SW/205 20 18 1025 12,20
2026-09-01 05:32 SW/208 23 17 1025 12,24
2026-09-01 05:42 S/201 18 17 1025 12,27
2026-09-01 05:52 S/201 24 17 1025 12,30
2026-09-01 06:02 S/200 20 17 1025 12,16
2026-09-01 06:12 SW/203 25 17 1025 12,21
2026-09-01 06:22 S/202 26 17 1025 12,24
2026-09-01 06:33 S/194 27 17 1025 12,26
2026-09-01 06:43 SW/208 24 17 1025 12,29
2026-09-01 06:53 SW/214 19 17 1025 11,83
2026-09-01 07:03 SW/216 16 16 1025 12,13
2026-09-01 07:13 SW/225 11 16 1025 12,20
2026-09-01 07:23 SW/226 14 16 1025 12,23
2026-09-01 07:33 SW/213 15 16 1025 12,26
2026-09-01 07:43 SW/217 13 17 1025 12,30
2026-09-01 07:53 SW/214 12 17 1025 12,16
2026-09-01 08:03 SW/207 11 17 1025 12,20
2026-09-01 08:13 SW/208 10 18 1025 12,26
2026-09-01 08:23 SW/208 9 19 1025 12,30
2026-09-01 08:33 SW/220 7 19 1025 12,39
2026-09-01 08:43 SW/223 6 20 1026 12,46
2026-09-01 08:53 SW/242 4 21 1026 12,08
2026-09-01 09:04 W/274 5 22 1025 12,32
2026-09-01 09:14 W/262 6 23 1025 12,35
2026-09-01 09:24 W/266 4 24 1025 12,39
2026-09-01 09:34 NW/305 10 24 1025 12,42
2026-09-01 09:44 NW/320 11 25 1025 12,51
2026-09-01 09:54 NW/320 14 25 1025 12,62
2026-09-01 10:04 NW/337 14 26 1025 12,58
2026-09-01 10:14 NW/333 12 26 1025 12,57
2026-09-01 10:24 NW/335 12 27 1025 12,55
2026-09-01 10:34 NW/337 11 27 1025 12,57
2026-09-01 10:44 N/17 9 27 1025 12,13
2026-09-01 10:54 N/347 9 28 1025 12,29
2026-09-01 11:05 NW/332 15 28 1025 12,32
2026-09-01 11:15 NW/320 10 28 1025 12,39
2026-09-01 11:28 NW/324 17 28 1025 12,11
2026-09-01 11:38 N/352 18 28 1025 12,27
2026-09-01 11:49 NW/309 16 28 1025 12,32
2026-09-01 11:59 N/1 14 28 1025 12,27
2026-09-01 12:10 NW/322 14 28 1025 12,33
2026-09-01 12:20 NW/326 15 27 1025 12,24
2026-09-01 12:31 N/339 18 27 1025 12,29
2026-09-01 12:41 N/15 17 27 1025 12,24
2026-09-01 12:51 N/6 13 27 1025 12,29
2026-09-01 13:01 NO/24 13 27 1025 12,30
2026-09-01 13:11 NO/27 12 27 1025 12,33
2026-09-01 13:22 NO/39 12 27 1025 12,36
2026-09-01 13:32 NO/47 16 28 1025 12,36
2026-09-01 13:42 NO/65 15 28 1025 12,39
2026-09-01 13:52 NO/41 19 28 1025 12,40
2026-09-01 14:02 N/340 17 27 1025 12,42
2026-09-01 14:12 N/6 17 27 1025 12,43
2026-09-01 14:22 N/17 11 27 1025 12,45
2026-09-01 14:32 N/357 11 28 1025 12,24
2026-09-01 14:42 N/346 12 28 1024 12,57
2026-09-01 14:52 N/5 11 28 1024 12,58
2026-09-01 15:02 N/6 11 28 1024 12,58
2026-09-01 15:12 N/348 9 28 1024 12,58
2026-09-01 15:22 N/18 12 28 1024 12,58
2026-09-01 15:33 N/14 8 28 1024 12,60
2026-09-01 15:43 NW/322 8 28 1024 12,62
2026-09-01 15:53 N/4 9 28 1024 12,64
2026-09-01 16:03 N/19 11 28 1024 12,65
2026-09-01 16:13 N/349 10 28 1024 12,65
2026-09-01 16:23 N/5 7 28 1024 12,68
2026-09-01 16:33 W/269 3 28 1024 12,24
2026-09-01 16:43 N/19 4 28 1024 12,40
2026-09-01 16:53 NO/35 4 28 1024 12,45
2026-09-01 17:03 NW/336 5 28 1024 12,46
2026-09-01 17:13 NW/304 4 28 1024 12,49
2026-09-01 17:23 SW/247 4 28 1024 12,49
2026-09-01 17:33 NW/327 3 28 1024 12,55
2026-09-01 17:43 NO/41 7 28 1024 12,55
2026-09-01 17:54 NO/42 4 28 1024 12,57
2026-09-01 18:04 NO/61 5 28 1024 12,58
2026-09-01 18:14 O/74 3 28 1024 12,60
2026-09-01 18:24 O/77 1 28 1024 12,10
2026-09-01 18:34 O/77 0 28 1024 12,36
2026-09-01 18:44 O/90 4 27 1024 12,40
2026-09-01 18:54 S/179 4 27 1024 12,42
2026-09-01 19:04 S/189 5 27 1024 12,45